Location: Unspecified
(0.0000°N, 0.0000°E)
Time: 06:48:00
(UTC+00:00)

Transit 2A - Pass Details

Date: 19 November 2019
Orbit: 602 x 957 km, 66.7° (Epoch: 11 December)

Event Time Altitude Azimuth Distance (km) Brightness Sun altitude
Rises 22:29:22 0° 336° (NNW) 2,959 - -63.0°
Reaches altitude 10° 22:31:34 10° 334° (NNW) 2,093 - -63.4°
Maximum altitude 22:36:18 71° 250° (WSW) 757 - -64.1°
Drops below altitude 10° 22:41:33 10° 166° (SSE) 2,324 - -64.9°
Sets 22:44:06 0° 164° (SSE) 3,315 - -65.3°
